Vertical_Velocity
1 -0 0 -1 -1 -1 -2 -1 -1 -2 -2 -4 -1 -1 0 -0 1 3 -3 6 -4 1 -2 2 3 -6 2 1 -3 -10 -3 5 16 0 -0 -1 -4 -1 -9 -9 -1 2 -2 -13 15
-0 -0 -0 0 -0 -0 -1 -3 -2 -3 -4 -2 -2 -2 -2 -2 1 -1 1 0 0 3 0 -2 1 -1 2 1 -2 -5 -3 8 12 0 10 1 3 5 -4 -7 -6 1 -3 -3 9
-1 -0 -1 -1 -1 -2 -1 -1 -4 -3 -3 -3 -3 -2 -1 -1 -1 -3 1 1 1 0 0 4 -4 1 1 -2 0 -1 9 2 11 1 0 3 -3 2 -1 -9 -5 10 -0 7 5
-0 -0 0 -1 -2 -1 -1 -1 -0 -1 -3 -2 -3 -2 1 0 -1 1 -5 1 -0 2 1 2 -4 0 5 -6 -2 -7 3 5 6 6 -6 6 -5 5 -5 -5 8 -23 -10 8 8
-2 -1 -0 -1 -2 -0 1 -1 -2 -2 -3 -3 -2 -3 -1 2 -5 4 -1 -3 -2 -0 2 -1 1 -1 4 2 -7 -6 3 -6 6 4 -11 -1 2 -1 -3 -3 4 -8 -3 -7 7
-2 -2 -1 -2 -2 -0 -1 0 -0 -1 -3 -1 -2 -2 -2 2 6 -0 -1 -1 0 -2 -1 3 -4 -4 -4 1 -9 -0 -2 1 5 9 -7 3 8 3 -5 0 -18 -26 0 2 2
-2 -2 -1 -2 -1 -1 -2 -0 -1 -1 -2 -0 0 -0 1 -14 1 1 -2 -1 -0 0 1 -3 -2 1 9 12 -7 2 -0 4 5 17 4 -1 3 10 -1 4 -7 -18 -3 2 6
-1 -1 -1 -1 -1 -1 -1 -1 -1 -2 -2 -2 -0 0 8 -5 -1 7 -1 1 -2 0 -1 -3 -3 -0 2 5 -2 3 3 -6 22 7 16 0 -0 13 -4 3 4 -6 -23 -17 8
-2 -1 -0 -3 -1 -1 -1 -2 -2 -2 -2 -3 -1 -0 0 1 -0 -2 5 0 -1 1 -1 -3 -0 2 1 -2 -1 -4 3 1 4 5 14 7 1 11 1 4 1 3 -13 -18 -3
-1 -2 -2 -2 -1 -0 1 -0 -1 -1 -2 -3 -1 -2 -1 -4 1 -2 -2 -1 1 -2 1 -1 -6 -2 -3 -1 4 11 6 4 -0 13 12 10 10 1 3 4 3 -9 0 -4 -4
-0 -0 -3 -4 -2 4 -1 -1 -2 -2 -1 -3 7 -1 -4 2 -1 -1 1 0 1 3 4 -7 -4 7 2 0 3 1 -5 -3 5 13 -6 10 8 1 19 -2 1 -2 -3 -3 -4
-1 1 0 -3 -2 6 -1 -4 -1 0 2 -2 -2 8 -2 -3 4 1 -3 1 -1 4 -4 -3 6 1 -4 -3 -1 -3 -5 -0 3 8 -7 15 5 1 -6 13 -1 1 -5 -7 -11
-0 0 1 -0 -0 5 -7 0 0 1 0 -11 2 7 -7 1 4 0 2 -0 1 1 -1 -3 22 -3 -3 -3 -4 -3 -1 8 6 1 -19 10 4 -6 -0 1 3 -4 3 -11 -9
-1 1 3 -0 -0 3 -4 2 1 3 -4 5 -3 -2 1 -1 1 3 -1 -2 0 3 -5 -8 11 1 -3 -1 -4 -4 4 3 3 0 -4 -4 -24 -8 -5 4 -11 -4 -2 1 -7
4 -0 3 3 0 1 1 3 0 6 -7 5 -3 -2 -0 1 6 -3 -1 -6 5 2 -10 14 5 1 -5 9 -4 7 -1 -1 -1 3 1 1 -16 -17 13 -18 -2 1 7 6 7
3 3 -2 7 1 3 4 3 4 2 -8 -10 -5 -3 14 3 2 -5 -1 1 -1 -8 -7 3 -4 -6 11 -1 -3 1 -1 2 3 6 -15 9 -9 -1 -9 6 19 4 4 2 1
2 1 3 -0 7 4 4 3 3 -2 -2 -15 -2 4 13 4 3 3 7 9 -6 -8 6 4 5 4 1 2 3 -1 4 3 -4 -8 -39 48 32 -26 -14 -3 5 -2 9 5 -1
1 -2 1 4 5 4 8 5 4 -1 -1 6 3 8 -9 11 -1 3 1 -16 -6 -9 1 -4 -2 8 13 5 9 -0 3 2 -7 -1 13 13 -37 -57 22 17 11 7 -2 2 1
-4 5 0 3 5 5 6 5 -2 3 10 9 2 4 -6 5 9 8 -2 -11 0 1 1 -7 -4 5 6 2 -2 15 -25 25 -5 1 -7 3 -8 -17 -4 1 15 15 14 -2 1
3 2 4 -2 4 6 3 2 -1 3 12 5 3 6 -2 9 8 4 -2 -5 -2 -4 2 -15 -2 3 -2 14 1 4 13 4 -10 -14 -6 -7 -12 -42 5 4 11 6 -1 -4 2
2 2 3 1 3 3 2 0 1 3 7 6 4 -8 4 7 12 -7 -13 -4 -3 -5 -2 -1 1 12 21 4 14 13 10 -4 -11 -8 -5 -1 -53 16 10 8 14 19 25 -5 -0
2 2 4 4 2 3 6 -2 -5 0 11 3 1 7 -0 6 9 -9 -3 -12 0 1 -4 -0 -9 4 7 23 12 6 -3 -2 -10 3 -3 -27 -11 14 19 17 27 27 25 23 -9
-1 0 4 2 0 4 0 -0 0 1 4 1 -1 -1 2 2 7 5 -6 -1 -0 5 1 -1 -16 -4 5 19 18 1 -3 1 2 -1 10 -30 12 16 9 10 -7 6 12 2 2
2 1 -4 2 3 2 3 2 -1 1 1 3 1 -3 1 -2 14 -6 -2 -9 5 8 0 6 -4 -3 0 6 3 11 5 9 3 5 -8 -33 14 4 4 -12 14 -7 -4 -3 -4
-0 1 3 0 2 1 4 2 -4 -8 2 11 -3 -4 -2 -0 5 -2 -1 -2 9 6 1 1 -2 -5 -0 5 -4 -9 9 3 7 7 -9 9 -13 1 -1 13 -5 2 7 5 0
-1 2 -2 2 3 -0 4 2 1 -1 2 -1 2 2 -0 3 -4 -3 -0 4 10 5 3 -5 -5 -1 9 0 -11 -12 -1 13 5 7 -18 3 -28 15 10 0 -1 7 1 14 -18
0 -4 5 -3 -2 3 2 -2 -2 1 -2 -2 0 1 -3 0 3 4 1 1 7 2 -1 -5 -3 -5 1 -8 -6 -20 18 5 1 8 -5 -3 6 -14 14 2 -5 -0 -4 4 2
Height
5804 5802 5801 5800 5799 5798 5797 5796 5795 5794 5793 5792 5791 5791 5790 5789 5789 5789 5790 5793 5795 5799 5802 5804 5806 5807 5811 5815 5818 5821 5827 5834 5839 5841 5842 5841 5842 5845 5845 5849 5854 5852 5854 5857 5866
5797 5796 5795 5794 5793 5792 5791 5790 5790 5789 5788 5788 5787 5786 5786 5785 5784 5784 5784 5784 5787 5791 5794 5797 5799 5801 5805 5809 5812 5813 5821 5830 5835 5836 5836 5835 5838 5839 5842 5845 5850 5850 5854 5858 5861
5791 5789 5788 5787 5786 5785 5784 5784 5784 5783 5783 5782 5782 5782 5781 5780 5780 5779 5778 5777 5779 5782 5786 5788 5792 5794 5798 5801 5804 5808 5818 5826 5829 5829 5827 5826 5829 5832 5837 5841 5841 5849 5850 5857 5861
5782 5781 5780 5779 5778 5777 5777 5777 5776 5776 5776 5776 5776 5776 5776 5776 5776 5774 5773 5773 5773 5774 5777 5780 5783 5787 5791 5794 5797 5800 5810 5819 5823 5822 5822 5820 5819 5823 5828 5836 5835 5836 5840 5845 5858
5773 5772 5771 5770 5770 5769 5769 5768 5768 5768 5768 5769 5769 5770 5770 5771 5769 5770 5768 5768 5768 5769 5769 5772 5775 5778 5784 5787 5790 5791 5801 5809 5816 5815 5814 5814 5812 5814 5816 5828 5834 5834 5837 5844 5852
5765 5764 5763 5763 5762 5762 5760 5760 5760 5760 5760 5761 5761 5763 5764 5764 5764 5764 5764 5763 5763 5763 5763 5765 5767 5769 5774 5779 5782 5784 5791 5799 5807 5809 5807 5810 5808 5809 5813 5821 5826 5833 5839 5841 5849
5759 5758 5756 5755 5755 5755 5754 5753 5752 5752 5752 5752 5753 5754 5757 5754 5758 5758 5758 5758 5758 5758 5757 5758 5761 5763 5768 5772 5776 5780 5783 5792 5800 5804 5803 5804 5801 5801 5809 5818 5822 5825 5831 5835 5843
5752 5750 5750 5748 5748 5747 5747 5746 5745 5744 5744 5744 5745 5746 5749 5746 5751 5752 5752 5752 5752 5752 5752 5752 5754 5756 5759 5764 5768 5773 5777 5784 5795 5797 5801 5799 5797 5796 5803 5810 5816 5819 5826 5827 5836
5744 5742 5741 5740 5740 5739 5739 5738 5738 5737 5737 5737 5738 5739 5740 5741 5743 5745 5746 5746 5746 5747 5746 5746 5748 5750 5751 5755 5760 5762 5768 5773 5784 5789 5792 5794 5791 5789 5794 5801 5807 5812 5816 5823 5830
5735 5734 5733 5731 5731 5731 5731 5730 5730 5730 5730 5729 5731 5733 5734 5734 5736 5736 5738 5739 5739 5740 5741 5741 5742 5744 5745 5747 5753 5756 5759 5763 5772 5782 5783 5787 5788 5784 5785 5795 5801 5807 5814 5820 5824
5725 5724 5723 5722 5722 5723 5722 5722 5723 5723 5723 5722 5725 5725 5725 5727 5728 5729 5731 5732 5732 5734 5735 5734 5736 5738 5738 5740 5743 5746 5749 5755 5760 5770 5771 5776 5780 5781 5782 5786 5793 5800 5806 5811 5818
5715 5714 5713 5712 5712 5713 5712 5712 5712 5715 5715 5714 5715 5718 5717 5719 5722 5721 5724 5726 5726 5728 5727 5729 5731 5732 5732 5733 5735 5738 5742 5747 5752 5757 5761 5766 5769 5772 5771 5776 5785 5792 5797 5801 5808
5704 5703 5702 5702 5702 5702 5701 5702 5703 5704 5706 5705 5707 5710 5707 5711 5714 5714 5716 5717 5719 5720 5721 5722 5726 5724 5726 5727 5728 5732 5736 5739 5742 5745 5750 5753 5757 5762 5767 5769 5775 5779 5785 5790 5797
5693 5692 5691 5691 5692 5691 5691 5692 5693 5694 5695 5698 5696 5698 5699 5701 5705 5706 5706 5708 5710 5713 5713 5713 5717 5718 5719 5721 5723 5725 5728 5730 5732 5736 5740 5741 5745 5753 5758 5762 5769 5773 5775 5780 5785
5683 5680 5680 5679 5679 5680 5681 5681 5682 5685 5684 5686 5685 5686 5688 5692 5694 5696 5697 5697 5702 5704 5704 5708 5711 5710 5712 5715 5716 5719 5720 5721 5723 5725 5728 5735 5736 5745 5749 5752 5761 5766 5768 5772 5777
5669 5667 5666 5667 5667 5668 5669 5670 5671 5674 5671 5671 5673 5677 5681 5682 5683 5685 5686 5688 5690 5693 5694 5699 5702 5703 5706 5707 5708 5709 5712 5713 5715 5716 5716 5731 5730 5734 5739 5749 5753 5756 5759 5766 5771
5653 5650 5651 5651 5653 5654 5655 5656 5658 5658 5659 5660 5662 5666 5669 5672 5672 5672 5673 5676 5679 5681 5683 5688 5692 5693 5696 5698 5699 5700 5702 5704 5707 5707 5712 5720 5718 5725 5735 5741 5743 5747 5751 5753 5758
5635 5633 5633 5635 5636 5637 5639 5641 5642 5645 5646 5649 5650 5652 5655 5659 5658 5659 5659 5662 5666 5669 5674 5677 5681 5684 5687 5689 5691 5691 5693 5696 5696 5699 5704 5705 5708 5721 5731 5733 5735 5738 5742 5745 5748
5618 5618 5616 5617 5618 5620 5623 5624 5626 5630 5633 5635 5638 5639 5639 5644 5646 5647 5648 5651 5654 5659 5662 5663 5668 5672 5675 5676 5678 5679 5680 5687 5686 5688 5689 5696 5703 5711 5716 5723 5726 5728 5729 5733 5739
5603 5603 5602 5601 5603 5603 5605 5608 5611 5616 5620 5621 5623 5626 5627 5629 5631 5633 5635 5639 5643 5645 5649 5652 5656 5661 5665 5667 5667 5669 5673 5672 5673 5676 5678 5683 5690 5704 5708 5711 5714 5714 5717 5720 5725
5591 5590 5590 5589 5589 5591 5592 5593 5596 5601 5603 5606 5608 5610 5613 5616 5617 5616 5622 5626 5630 5633 5634 5638 5642 5649 5655 5656 5657 5658 5658 5660 5663 5668 5668 5674 5681 5696 5698 5702 5702 5705 5708 5708 5711
5580 5580 5579 5579 5580 5579 5580 5580 5583 5588 5591 5592 5594 5598 5600 5602 5603 5604 5606 5610 5616 5618 5620 5623 5626 5631 5642 5649 5647 5647 5648 5651 5653 5658 5658 5662 5674 5681 5683 5685 5686 5686 5691 5693 5692
5570 5569 5569 5568 5569 5569 5569 5570 5573 5576 5579 5579 5580 5583 5586 5589 5591 5592 5594 5600 5602 5606 5609 5612 5613 5616 5624 5634 5638 5634 5639 5641 5644 5645 5647 5651 5661 5666 5668 5669 5671 5673 5677 5678 5680
5561 5560 5558 5559 5559 5559 5560 5559 5561 5564 5567 5566 5567 5569 5572 5575 5578 5578 5583 5586 5588 5592 5595 5599 5602 5603 5606 5610 5618 5622 5627 5631 5632 5634 5634 5641 5647 5652 5656 5659 5660 5662 5665 5667 5670
5550 5549 5549 5548 5549 5548 5549 5549 5549 5552 5555 5554 5553 5555 5559 5561 5562 5564 5568 5572 5575 5578 5579 5583 5586 5589 5589 5592 5597 5605 5613 5616 5617 5621 5620 5632 5631 5637 5644 5646 5646 5652 5656 5659 5662
5540 5540 5539 5539 5539 5538 5539 5539 5540 5541 5542 5542 5543 5544 5545 5546 5548 5551 5555 5558 5560 5561 5561 5564 5569 5573 5578 5577 5579 5588 5598 5602 5604 5608 5607 5613 5620 5620 5624 5627 5634 5640 5645 5650 5650
5530 5529 5531 5529 5529 5529 5529 5528 5529 5530 5530 5529 5530 5531 5531 5533 5535 5537 5540 5541 5544 5547 5547 5548 5550 5554 5559 5560 5565 5570 5580 5585 5591 5594 5595 5597 5604 5597 5607 5616 5620 5627 5632 5637 5640